Location: Helsinki
(60.1699°N, 24.9384°E)
Time: 23:10:21
(UTC+02:00)

Transit 4A - Pass Details

Date: 04 November 2020
Orbit: 862 x 982 km, 66.8° (Epoch: 30 November)

Event Time Altitude Azimuth Distance (km) Brightness Sun altitude
Rises 22:00:51 0° 311° (NW) 3,698 11.9 -40.3°
Reaches altitude 10° 22:03:28 10° 308° (NW) 2,748 11.0 -40.5°
Enters shadow 22:06:30 29° 296° (WNW) 1,738 9.6 -40.7°
